Location: Coppingford
(52.4000°N, 0.2833°W)
Time: 07:20:32
(UTC+00:00)

Daily predictions for brighter satellites

Satellite Brightness Start Highest point End
(mag) Time Altitude Azimuth Time Altitude Azimuth Time Altitude Azimuth
Cosmos 1500 Rocket 3.6 20:11:30 10° SSW 20:15:49 85° W 20:20:11 10° N
Spot 2 Rocket 4.1 20:12:32 10° SE 20:17:21 44° ENE 20:22:12 10° N
Cosmos 2322 Rocket 4.0 20:13:34 10° NNW 20:17:57 22° NNE 20:22:20 10° E
Meteor 1-4 Rocket 3.5 20:15:45 10° N 20:18:56 31° ENE 20:22:03 10° SE
Ariane Rocket 4.4 20:14:55 10° SSW 20:19:38 38° W 20:24:22 10° NNW
USA 186 4.1 20:19:43 10° SW 20:20:53 13° W 20:22:03 10° WNW
Resurs 1-3 3.9 20:16:34 10° S 20:20:57 70° WSW 20:25:22 10° NNW
CZ-2C R/B 2.7 20:17:54 10° NNE 20:23:06 83° WNW 20:28:18 10° SSW
Terra 3.4 20:21:58 10° ESE 20:25:31 21° ENE 20:29:06 10° N
Cosmos 407 Rocket 4.1 20:21:07 10° S 20:26:00 38° ESE 20:30:52 10° NE
USA 234 3.3 20:19:34 10° ESE 20:26:08 88° SSW 20:32:43 10° WNW
Cosmos 1666 Rocket 4.2 20:23:21 10° SSE 20:27:17 35° E 20:31:13 10° NNE
Cosmos 1238 Rocket 4.5 20:29:13 10° E 20:29:18 10° E 20:29:23 10° E
Meteor 1-27 Rocket 3.9 20:23:42 10° N 20:29:37 74° ENE 20:35:34 10° SSE
Meteor 1-10 Rocket 4.5 20:24:32 10° NNW 20:30:11 75° W 20:35:54 10° S
Cosmos 2360 Rocket 4.2 20:27:57 10° NNW 20:31:54 19° NNE 20:35:49 10° ENE
MetOp-B 4.2 20:26:57 10° SSE 20:32:18 73° ENE 20:37:40 10° NNW
BREEZE-M DEB (TANK) 4.3 20:31:28 10° W 20:35:29 17° WSW 20:37:51 10° SSW
ERBS 2.3 20:33:28 10° WSW 20:36:48 83° NNW 20:40:08 10° ENE
Cosmos 1805 Rocket 3.6 20:34:30 10° S 20:38:56 84° E 20:43:25 10° NNE
SPOT 5 3.7 20:35:54 10° SE 20:39:39 31° ENE 20:43:30 10° N
Cosmos 1980 Rocket 2.3 20:36:03 10° NNW 20:41:45 68° NE 20:47:05 12° SE
SPOT 1/Viking Rocket 3.8 20:40:04 10° SSE 20:45:12 61° ENE 20:50:21 10° N
Genesis I 3.2 20:43:32 10° NW 20:47:26 74° NE 20:50:44 14° SE
SL-4 R/B 3.0 20:44:30 10° SSW 20:47:34 22° SE 20:50:29 10° E
BREEZE-M DEB (TANK) 2.6 20:45:38 10° WSW 20:48:14 48° SSE 20:54:25 10° E
ATLAS 5 CENTAUR R/B 3.5 20:45:01 10° WNW 20:50:11 36° WSW 20:56:05 10° S
Cosmos 405 Rocket 4.3 20:49:21 13° ESE 20:51:04 17° E 20:53:34 10° NE
Cosmos 1140 Rocket 3.8 20:46:35 10° S 20:51:36 47° ESE 20:56:38 10° NE
Cosmos 389 Rocket 4.0 20:50:10 10° NNW 20:53:18 34° W 20:56:28 10° SSW
Cosmos 1812 3.9 20:52:44 10° NNW 20:56:24 43° W 21:00:02 10° SSW
Cosmos 1697 Rocket 3.1 20:51:54 10° NW 20:57:27 60° WSW 21:02:57 10° SSE
USA 32 4.4 20:53:08 10° SSE 20:58:06 46° E 21:03:06 10° NNE
Cosmos 1633 Rocket 3.1 20:56:07 10° S 21:00:28 61° E 21:04:52 10° NNE
Cosmos 1833 Rocket 2.6 20:55:01 10° SSW 21:00:35 69° ESE 21:06:13 10° NE
Okean 1-7 4.2 21:02:01 10° N 21:05:50 29° ENE 21:08:30 16° ESE
Cosmos 1867 4.1 21:01:58 10° S 21:06:52 36° ESE 21:11:49 10° NE
CENTAUR R/B 3.8 21:04:46 15° SE 21:07:30 19° ESE 21:12:04 10° ENE
Cosmos 1707 Rocket 4.2 21:03:41 10° NNW 21:07:57 55° W 21:12:11 10° S
Resurs 01 Rocket 3.0 21:07:03 10° SSW 21:11:06 35° W 21:15:13 10° NNW
FALCON 9 DEB 4.2 21:10:27 10° SSW 21:13:20 24° SE 21:15:21 15° E
Landsat 7 4.1 21:09:00 10° S 21:13:44 70° WSW 21:18:31 10° NNW
Cosmos 1441 Rocket 4.3 21:11:29 10° SSW 21:15:09 46° WNW 21:18:49 10° N
deb Kosmos-1763 4.2 21:14:19 10° S 21:17:50 51° ESE 21:21:24 10° NE
Cosmos 44 4.4 21:14:22 10° NW 21:18:52 38° NE 21:23:09 12° E
Cosmos 192 4.3 21:14:18 10° NNW 21:19:14 84° WSW 21:22:57 18° SSE
ATLAS 5 CENTAUR R/B 2.5 21:17:30 10° NW 21:19:37 35° NNE 21:23:25 11° E
Cosmos 676 Rocket 4.2 21:15:19 10° S 21:20:28 53° ESE 21:25:41 10° NNE
IGS 5A 4.1 21:17:35 11° S 21:21:32 54° W 21:25:37 10° NNW
Meteor 1-25 Rocket 4.3 21:17:53 12° S 21:22:59 56° E 21:28:29 10° NNE
Cosmos 1470 Rocket 3.6 21:19:31 14° S 21:23:12 59° E 21:27:32 10° NNE
Cosmos 614 Rocket 4.5 21:19:01 10° SW 21:24:08 64° WNW 21:29:21 10° NNE
Cosmos 1934 Rocket 4.1 21:18:55 10° S 21:25:18 87° W 21:31:44 10° N
GP-B 3.2 21:21:57 10° N 21:26:24 77° W 21:30:41 11° S
Aureole 1 Rocket 4.4 21:19:31 10° S 21:26:25 71° ESE 21:34:43 10° NNE
SWAS 4.4 21:23:46 10° SSW 21:28:05 88° SE 21:32:28 10° NNE
USA 267 3.2 21:25:25 10° ENE 21:32:00 76° SSE 21:38:33 10° SW
Cosmos 921 Rocket 2.9 21:27:59 10° NNW 21:32:16 86° WSW 21:34:50 23° SSE
NOSS 3-2 (A) 3.7 21:27:29 10° S 21:32:51 42° ESE 21:38:58 10° NE
Cosmos 1862 Rocket 4.0 21:30:06 10° NNW 21:34:31 59° W 21:38:10 14° S
Cosmos 841 Rocket 4.3 21:33:46 10° NNW 21:38:44 42° NE 21:42:00 20° ESE
NOSS 3-2 (C) 4.1 21:35:51 19° SSE 21:38:59 31° ESE 21:44:31 10° ENE
COSMOS 2406 4.1 21:33:31 10° SW 21:39:09 54° NW 21:44:47 10° NNE
SAR-Lupe-2 3.5 21:36:21 10° NNE 21:39:56 64° ESE 21:41:55 24° S
ERS-1 Rocket 3.1 21:36:08 18° S 21:39:58 73° WSW 21:45:01 10° NNW
Cosmos 540 Rocket 4.3 21:35:16 10° NNW 21:40:11 41° NE 21:43:22 20° ESE
OPS 6432 4.4 21:36:37 10° SSW 21:40:31 58° SE 21:43:37 10° NE
SL-16 R/B 2.4 21:34:57 10° NNW 21:40:37 62° NE 21:44:17 22° SE
Lacrosse 5 1.8 21:37:03 10° WNW 21:42:10 90° NE 21:45:31 22° ESE
Cosmos 468 Rocket 4.0 21:37:08 10° NNW 21:42:30 81° ENE 21:45:45 24° SSE
Cosmos 2219 Rocket 4.1 21:46:43 10° NNW 21:51:12 23° NE 21:55:40 10° E
Cosmos 1954 Rocket 4.0 21:48:26 10° SSW 21:53:46 89° ESE 21:59:09 10° NNE
Cosmos 2082 Rocket 2.3 21:48:08 10° SSW 21:53:51 83° WNW 21:59:34 10° NNE
Cosmos 1184 Rocket 3.8 21:53:55 13° SSW 21:56:42 46° WNW 21:59:55 10° N
CARTOSAT-1 4.4 21:57:12 18° SSW 22:00:05 45° W 22:04:16 10° NNW
Terra 2.0 22:00:02 25° S 22:02:50 69° WSW 22:07:36 10° NNW
Cosmos 2322 Rocket 2.3 21:57:18 10° NNW 22:03:01 73° NE 22:06:13 27° SE
Cosmos 1933 Rocket 3.6 22:01:23 20° SSW 22:04:26 79° W 22:08:54 10° N
Okean 1 3.8 22:01:03 10° NNW 22:05:01 56° W 22:07:06 26° SSW
Cosmos 1238 Rocket 3.1 22:06:53 22° SW 22:08:28 44° WNW 22:11:20 10° N
Cosmos 1602 3.9 22:06:47 24° SSW 22:09:02 74° WNW 22:12:59 10° N
Cosmos 2100 Rocket 4.1 22:05:35 26° SSE 22:09:04 59° E 22:15:07 10° NNE
Cosmos 1437 Rocket 2.8 22:05:35 10° NNW 22:09:24 70° W 22:10:50 35° S
USA 234 4.0 22:06:06 22° S 22:09:40 38° SW 22:15:41 10° WNW
Cosmos 1242 Rocket 4.3 22:08:24 10° NNE 22:11:14 21° ENE 22:12:07 19° E
Cosmos 1605 Rocket 4.3 22:06:06 10° SSW 22:12:10 63° WNW 22:18:15 10° N
ERBS 3.8 22:10:16 10° WNW 22:13:23 36° N 22:16:29 10° ENE
Cosmos 1869 Rocket 3.7 22:13:01 36° SSE 22:14:36 57° E 22:18:59 10° NNE
Cosmos 2360 Rocket 2.6 22:11:35 10° NNW 22:17:11 56° NE 22:20:19 26° ESE
SPOT 5 3.7 22:15:08 19° SSW 22:17:43 36° W 22:21:46 10° NNW
COSMOS 2428 4.3 22:12:55 10° NNW 22:17:51 28° NE 22:22:37 11° E
MTI 3.8 22:15:26 10° NNE 22:18:29 53° E 22:18:29 53° E
JB-3 4.2 22:15:15 10° NNE 22:19:15 77° ESE 22:20:44 38° S
ATLAS 3B R/B 3.6 22:21:13 24° SE 22:22:08 25° ESE 22:27:22 10° ENE
Cosmos 1703 Rocket 4.1 22:17:57 10° NNW 22:22:12 52° W 22:24:15 27° SSW
Geosat 3.9 22:20:48 33° SSE 22:23:08 90° SW 22:28:12 10° NNW
Iridium 4 Rocket 3.0 22:21:45 39° SSE 22:23:15 69° E 22:27:27 10° N
Cosmos 2173 Rocket 3.9 22:21:11 28° S 22:24:36 70° E 22:30:43 10° NNE
Cosmos 1980 Rocket 3.8 22:20:42 10° NW 22:25:18 26° WSW 22:28:51 14° SSW
Cosmos 1500 3.1 22:25:10 51° SSE 22:25:56 68° E 22:29:40 10° NNE
Cosmos 405 Rocket 3.5 22:24:28 20° SW 22:26:43 46° WNW 22:30:21 10° N
SL-4 R/B 1.6 22:23:00 10° WSW 22:26:44 61° SSE 22:27:13 54° SE
Cosmos 1763 Rocket 4.0 22:23:29 10° NNW 22:28:40 54° WSW 22:31:09 29° S
USA 238 DEB 3.6 22:22:03 10° SW 22:28:43 81° SE 22:35:43 10° NE
USA 238 3.6 22:22:10 10° SW 22:28:49 80° SE 22:35:49 10° NE
ALOS 2 3.7 22:27:44 25° ESE 22:29:19 33° ENE 22:33:16 10° N
Cosmos 1725 Rocket 4.5 22:27:19 30° SE 22:30:02 47° E 22:36:02 10° NNE
Meteor 1-14 Rocket 4.5 22:29:24 19° SSW 22:33:41 74° WNW 22:39:40 10° N
Cosmos 1536 3.6 22:34:39 34° ESE 22:34:58 34° E 22:38:37 10° NNE
Cosmos 2333 Rocket 3.2 22:32:08 10° NNW 22:37:34 40° NE 22:41:19 19° ESE
Cosmos 1666 3.1 22:37:32 42° ESE 22:37:42 42° E 22:41:16 10° NNE
Cosmos 1271 Rocket 4.3 22:36:52 10° N 22:39:58 23° ENE 22:40:47 22° E
Meteor 1-13 Rocket 4.1 22:35:28 10° NNW 22:41:04 89° ENE 22:43:23 37° SSE
Cosmos 1356 4.2 22:41:30 37° E 22:41:30 37° E 22:44:25 10° NNE
Cosmos 2237 Rocket 4.3 22:36:59 10° NNW 22:41:17 21° NNE 22:45:34 10° E
Cosmos 2016 Rocket 4.1 22:39:51 32° SSE 22:42:51 67° E 22:49:12 10° NNE
Okean 1-7 4.2 22:39:29 10° NNW 22:43:29 36° W 22:45:21 24° SW
Meteor 1-5 Rocket 4.3 22:40:38 31° S 22:43:38 79° E 22:49:36 10° NNE
Lacrosse 4 Rocket 3.6 22:45:23 13° E 22:45:23 13° E 22:46:31 10° ENE
Cosmos 2061 Rocket 4.0 22:41:23 33° SSE 22:44:15 67° E 22:50:24 10° NNE
MOS 1-B Rocket 3.8 22:38:31 10° NNE 22:44:17 69° ESE 22:46:43 35° S
Cosmos 2221 Rocket 3.5 22:40:43 10° N 22:45:12 88° E 22:46:29 47° SSE
Cosmos 1459 Rocket 4.0 22:42:36 27° S 22:46:16 86° WNW 22:52:41 10° N
Okean 3 3.6 22:45:04 10° NNW 22:49:21 71° W 22:50:30 46° SSW
FALCON 9 DEB 4.0 22:46:32 10° WSW 22:48:49 38° WSW 22:48:49 38° WSW
Cosmos 1867 4.2 22:44:55 10° WSW 22:50:18 58° NW 22:55:43 10° NE
Cosmos 1066 Rocket 4.3 22:45:46 10° N 22:51:32 67° ENE 22:53:46 37° SE
Cosmos 1733 Rocket 3.4 22:50:59 42° ESE 22:51:40 46° E 22:55:55 10° NNE
SL-27 R/B 2.2 22:53:08 79° WSW 22:53:16 83° WNW 22:56:37 10° NNE
Meteor 1-23 Rocket 4.4 22:47:30 10° N 22:53:21 67° ENE 22:55:42 37° SE
Thor Agena Rocket 3.6 22:50:28 10° NNE 22:55:30 60° ESE 22:57:00 42° SSE
Cosmos 1864 Rocket 4.5 22:53:23 35° SSE 22:56:03 70° E 23:02:17 10° NNE
CENTAUR R/B 2.5 22:51:50 16° SW 22:56:51 77° SE 23:04:11 10° NE
Cosmos 1850 Rocket 4.3 22:54:34 21° SW 22:58:12 69° WNW 23:03:29 10° NNE
Meteor 2-4 Rocket 4.4 22:52:52 10° NNW 22:58:19 46° W 23:00:58 27° SSW
Cosmos 44 3.6 22:55:32 10° NW 23:00:18 56° SW 23:01:33 43° S
Cosmos 1802 Rocket 4.1 22:58:41 29° SSW 23:02:10 82° W 23:08:35 10° N
Spot 4 4.0 23:06:33 43° SSW 23:07:58 66° WSW 23:12:48 10° NNW
Cosmos 1378 3.3 23:08:32 10° N 23:12:15 57° ENE 23:12:29 56° E
USA 267 3.6 23:08:31 10° ENE 23:15:00 65° NNW 23:21:28 10° W
Cosmos 2233 Rocket 4.1 23:14:31 38° SSE 23:16:55 65° E 23:23:13 10° NNE
Cosmos 1908 Rocket 4.4 23:18:33 35° ESE 23:18:58 36° E 23:22:58 10° NNE
Cosmos 841 Rocket 4.4 23:15:48 10° NW 23:20:35 38° WSW 23:22:05 31° SW
Cosmos 540 Rocket 4.3 23:17:01 10° NW 23:21:46 38° WSW 23:23:10 32° SW
NOSS 3-2 (A) 4.0 23:17:37 10° WSW 23:23:31 60° NW 23:30:23 10° NE
SL-16 R/B 3.4 23:19:35 10° NW 23:24:23 29° WSW 23:26:08 24° SW
Lacrosse 5 3.0 23:20:24 10° WNW 23:24:41 28° SW 23:24:41 28° SW
Cosmos 2322 3.6 23:21:50 10° NNW 23:27:33 90° WSW 23:29:31 43° SSE
Cosmos 1378 Rocket 3.5 23:23:32 10° N 23:28:03 88° E 23:28:49 61° SSE
NOSS 3-2 (C) 3.6 23:23:22 10° SW 23:29:16 74° NW 23:36:11 10° NE
Cosmos 1833 4.2 23:28:45 45° SSE 23:30:13 61° ESE 23:35:49 10° NE
COSMOS 2487 3.1 23:32:14 44° ENE 23:32:14 44° ENE 23:34:57 10° NNE
GENESIS II 4.2 23:30:08 10° NW 23:34:10 78° NE 23:34:38 66° ESE
Cosmos 2219 Rocket 2.2 23:30:22 10° NNW 23:36:06 78° ENE 23:38:19 39° SE
Cosmos 2084 Rocket 3.4 23:35:29 51° SW 23:36:32 85° NW 23:40:53 10° NE
Tsikada Rocket 4.3 23:30:56 10° NNW 23:37:11 58° W 23:39:45 35° SSW
Cosmos 2082 Rocket 4.4 23:34:13 10° W 23:38:48 24° NW 23:43:22 10° NNE
EO 1 Del DPAF 3.5 23:35:45 10° N 23:39:29 59° WNW 23:39:56 54° WSW
Cosmos 1975 Rocket 3.7 23:37:03 10° N 23:41:24 46° ENE 23:42:25 39° ESE
Terra 4.3 23:40:21 10° W 23:41:30 11° W 23:42:38 10° WNW
Cosmos 2333 4.2 23:36:09 10° NW 23:41:57 74° WSW 23:43:44 46° S
Cosmos 1242 Rocket 3.5 23:42:53 10° NNW 23:46:07 36° W 23:46:07 36° W
Cosmos 2322 Rocket 3.6 23:42:05 10° NW 23:46:33 24° WSW 23:48:01 22° SW
YAOGAN 11 4.3 23:48:26 50° SE 23:49:29 68° ENE 23:54:04 10° N
ERBS 3.3 23:46:54 10° WNW 23:50:07 45° NNE 23:51:02 35° ENE
Helios 1A 2.9 23:49:48 65° SE 23:50:22 80° ENE 23:54:38 10° NNW
SL-16 R/B 4.2 23:46:57 10° NNW 23:51:38 25° NE 23:56:17 10° E
SL-16 R/B 4.3 23:47:20 10° ESE 23:52:17 25° NE 23:57:13 10° N
Cosmos 1486 Rocket 4.0 23:52:12 52° S 23:53:20 68° ESE 23:58:31 10° NNE
Cosmos 1544 3.4 23:54:38 55° ENE 23:54:38 55° ENE 23:58:02 10° NNE
